2023/09/20 00:00:00,18.2,21.8
2023/09/20 00:10:00,18.1,21.8
2023/09/20 00:20:00,18.1,21.7
2023/09/20 00:30:00,18.2,21.6
2023/09/20 00:40:00,18.1,21.5
2023/09/20 00:50:00,18.2,21.6
2023/09/20 01:00:00,18.2,21.6
2023/09/20 01:10:00,19.1,21.6
2023/09/20 01:20:00,18.5,21.5
2023/09/20 01:30:00,18.2,21.4
2023/09/20 01:40:00,18.1,21.4
2023/09/20 01:50:00,18.2,21.4
2023/09/20 02:00:00,18.2,21.4
2023/09/20 02:10:00,18.2,21.5
2023/09/20 02:20:00,18.3,21.3
2023/09/20 02:30:00,18.3,21.3
2023/09/20 02:40:00,18.5,21.4
2023/09/20 02:50:00,28.1,21.4
2023/09/20 03:00:00,33.8,21.2
2023/09/20 03:10:00,32.9,21.4
2023/09/20 03:20:00,32.6,21.6
2023/09/20 03:30:00,32.7,21.4
2023/09/20 03:40:00,33.2,21.2
2023/09/20 03:50:00,28.6,21.4
2023/09/20 04:00:00,18.4,21.5
2023/09/20 04:10:00,18.1,21.4
2023/09/20 04:20:00,18.1,21.4
2023/09/20 04:30:00,18.1,21.3
2023/09/20 04:40:00,18.3,21.2
2023/09/20 04:50:00,18.3,21.2
2023/09/20 05:00:00,18.3,21.4
2023/09/20 05:10:00,18.2,21.2
2023/09/20 05:20:00,18.1,21.4
2023/09/20 05:30:00,18.1,21.1
2023/09/20 05:40:00,18.3,21.2
2023/09/20 05:50:00,18.4,21.2
2023/09/20 06:00:00,22.6,21.2
2023/09/20 06:10:00,30.0,21.4
2023/09/20 06:20:00,32.3,21.4
2023/09/20 06:30:00,32.5,21.5
2023/09/20 06:40:00,32.7,21.7
2023/09/20 06:50:00, 0.1,21.7
2023/09/20 07:00:00, 0.0,21.8
2023/09/20 07:10:00, 0.0,22.0
2023/09/20 07:20:00, 0.0,22.0
2023/09/20 07:30:00, 0.0,22.2
2023/09/20 07:40:00, 0.0,22.4
2023/09/20 07:50:00, 0.0,22.7
2023/09/20 08:00:00, 0.0,23.2
2023/09/20 08:10:00, 0.0,23.3
2023/09/20 08:20:00, 0.0,23.3
2023/09/20 08:30:00, 0.0,23.8
2023/09/20 08:40:00, 0.0,23.6
2023/09/20 08:50:00, 0.0,24.0
2023/09/20 09:00:00, 0.0,24.3
2023/09/20 09:10:00,12.9,24.7
2023/09/20 09:20:00,20.4,25.1
2023/09/20 09:30:00,21.6,25.6
2023/09/20 09:40:00,22.0,25.7
2023/09/20 09:50:00,22.0,25.6
2023/09/20 10:00:00,21.7,25.8
2023/09/20 10:10:00,21.6,25.9
2023/09/20 10:20:00,21.9,26.1
2023/09/20 10:30:00,22.9,26.8
2023/09/20 10:40:00,33.4,27.4
2023/09/20 10:50:00,30.1,27.7
2023/09/20 11:00:00,29.3,28.5
2023/09/20 11:10:00,30.7,28.4
2023/09/20 11:20:00,24.8,28.5
2023/09/20 11:30:00,24.5,28.4
2023/09/20 11:40:00,27.0,28.1
2023/09/20 11:50:00,37.1,28.1
2023/09/20 12:00:00,37.6,28.6
2023/09/20 12:10:00,37.7,28.7
2023/09/20 12:20:00,38.4,28.9
2023/09/20 12:30:00,35.2,29.1
2023/09/20 12:40:00,28.5,28.6
2023/09/20 12:50:00,28.8,29.1
2023/09/20 13:00:00,27.9,28.9
2023/09/20 13:10:00,25.5,28.2
2023/09/20 13:20:00,24.1,27.1
2023/09/20 13:30:00,28.5,26.9
2023/09/20 13:40:00,21.6,26.1
2023/09/20 13:50:00,11.9,25.2
2023/09/20 14:00:00,10.4,25.3
2023/09/20 14:10:00,18.5,25.7
2023/09/20 14:20:00,20.5,25.5
2023/09/20 14:30:00,21.3,25.9
2023/09/20 14:40:00,---,26.1
2023/09/20 14:50:00,38.7,25.7
2023/09/20 15:00:00,39.1,25.4
2023/09/20 15:10:00,39.3,25.6
2023/09/20 15:20:00,39.7,25.7
2023/09/20 15:30:00,35.4,25.7
2023/09/20 15:40:00,21.8,25.7
2023/09/20 15:50:00,21.4,25.4
2023/09/20 16:00:00,---,25.6
2023/09/20 16:10:00,34.2,25.3
2023/09/20 16:20:00,38.3,25.0
2023/09/20 16:30:00,38.4,25.0
2023/09/20 16:40:00,37.8,25.0
2023/09/20 16:50:00,37.4,25.0
2023/09/20 17:00:00,36.7,25.0
2023/09/20 17:10:00,36.3,24.6
2023/09/20 17:20:00,36.0,24.5
2023/09/20 17:30:00,35.5,24.5
2023/09/20 17:40:00,34.8,24.2
2023/09/20 17:50:00,33.9,24.0
2023/09/20 18:00:00,31.4,23.8
2023/09/20 18:10:00,25.7,23.7
2023/09/20 18:20:00,20.7,23.5
2023/09/20 18:30:00,20.8,23.4
2023/09/20 18:40:00,20.9,23.4
2023/09/20 18:50:00,20.8,23.2
2023/09/20 19:00:00,20.7,23.1
2023/09/20 19:10:00,20.5,23.0
2023/09/20 19:20:00,20.4,23.2
2023/09/20 19:30:00,20.3,22.9
2023/09/20 19:40:00,20.3,22.8
2023/09/20 19:50:00,20.5,22.7
2023/09/20 20:00:00,20.4,22.7
2023/09/20 20:10:00,20.5,22.6
2023/09/20 20:20:00,20.5,22.5
2023/09/20 20:30:00,20.5,22.7
2023/09/20 20:40:00,20.5,22.3
2023/09/20 20:50:00,20.4,22.4
2023/09/20 21:00:00,20.4,22.3
2023/09/20 21:10:00,20.4,22.2
2023/09/20 21:20:00,20.3,22.2
2023/09/20 21:30:00,20.3,22.6
2023/09/20 21:40:00,20.3,22.3
2023/09/20 21:50:00,20.3,22.2
2023/09/20 22:00:00,20.3,22.3
2023/09/20 22:10:00,20.3,22.2
2023/09/20 22:20:00,20.4,22.1
2023/09/20 22:30:00,20.3,22.3
2023/09/20 22:40:00,20.3,22.2
2023/09/20 22:50:00,20.3,22.2
2023/09/20 23:00:00,20.4,22.1
2023/09/20 23:10:00,20.3,21.9
2023/09/20 23:20:00,20.2,21.8
2023/09/20 23:30:00,20.2,22.1
2023/09/20 23:40:00,20.0,21.9
2023/09/20 23:50:00,20.0,22.2
